Wind_Speed
18 16 18 17 22 12 13 12 12 11 11 5 9 7 6 8 7 11 16 18 16 15 16 20 20 12 12 12 8 10 13 12
22 21 19 23 22 12 11 10 10 8 9 9 12 9 7 6 7 9 11 9 10 13 17 21 14 11 15 11 6 9 10 9
28 21 19 21 24 21 18 14 9 7 7 13 13 12 6 6 5 7 10 11 12 12 13 11 10 12 14 13 12 11 10 11
27 23 25 23 22 19 16 12 13 16 8 10 16 17 13 7 6 4 7 9 10 13 12 11 12 15 13 13 13 12 12 13
28 30 23 22 24 26 19 17 19 12 5 14 13 18 17 14 15 12 7 8 10 14 13 11 11 12 13 14 14 14 16 15
24 25 21 26 23 25 21 18 14 15 12 11 8 11 15 14 18 18 15 11 7 14 11 13 14 13 15 15 15 17 17 15
29 26 25 24 22 23 25 21 20 18 14 11 8 10 9 15 17 17 18 12 11 5 11 11 12 13 14 16 18 18 17 19
23 24 28 27 25 26 29 24 26 24 20 10 14 11 13 12 11 12 13 12 13 12 15 17 14 13 15 15 18 19 19 21
15 17 20 26 25 27 24 25 27 26 21 17 16 11 15 13 11 15 13 13 11 15 14 18 19 16 15 18 21 21 22 24
16 18 21 14 17 19 21 22 26 29 26 27 22 14 12 16 16 18 21 17 18 16 17 22 24 20 17 18 21 20 24 25
21 19 16 24 24 23 24 19 21 27 23 28 25 20 11 14 18 22 22 23 22 16 15 14 20 18 17 21 21 20 23 24
23 22 21 15 22 17 18 18 19 20 18 21 23 22 18 16 17 19 22 25 23 22 19 21 27 28 26 28 24 23 23 25
22 23 20 26 25 22 22 17 21 19 17 15 20 26 26 21 20 24 27 27 27 25 23 27 30 30 29 30 27 25 26 29
27 27 25 29 29 29 25 25 23 16 16 14 14 23 27 29 27 28 30 31 32 30 28 29 33 35 33 30 27 27 30 32
27 25 31 36 37 35 33 31 28 23 18 19 17 19 27 30 31 28 31 31 29 30 35 35 36 37 37 32 30 30 31 31
41 37 43 44 42 43 41 38 36 31 22 23 22 22 26 34 34 32 31 33 34 36 37 39 41 38 39 37 37 36 30 31
38 35 37 42 42 42 45 45 41 34 24 22 26 26 27 29 32 34 36 37 38 37 38 40 40 40 38 38 39 38 25 28
33 38 36 40 39 40 42 42 44 45 38 33 29 32 31 31 32 36 38 42 44 44 38 39 41 37 32 37 31 27 30 29
35 36 33 35 36 37 38 39 38 38 37 35 33 35 35 34 33 33 36 42 47 41 42 42 43 36 26 35 39 36 30 29
Wind_Direction
235 230 224 226 218 215 223 269 288 274 273 314 271 276 280 300 324 303 303 301 305 293 292 301 308 325 338 326 300 314 342 335
229 228 222 219 211 220 255 247 265 277 298 267 248 237 251 296 334 340 341 331 317 300 291 295 297 329 334 326 324 325 338 321
231 232 225 227 220 210 202 226 248 278 278 269 236 231 240 273 310 16 33 17 360 342 319 311 310 314 315 312 326 321 321 314
237 232 220 220 216 220 239 264 275 263 275 270 248 241 246 257 258 307 333 355 351 352 326 311 302 301 306 304 306 303 303 303
234 234 229 228 218 218 222 241 245 264 247 277 276 257 251 266 264 265 288 316 321 325 320 309 297 299 296 301 296 298 302 308
234 243 238 231 230 229 228 242 265 267 273 260 291 302 269 265 268 267 265 295 307 334 316 300 295 293 293 296 296 299 303 308
231 226 224 227 225 229 234 237 241 247 261 259 259 267 284 280 273 274 261 267 295 277 328 326 314 303 294 298 298 299 309 309
228 226 227 218 219 223 241 240 245 249 256 242 262 244 254 277 254 252 260 265 281 272 288 310 302 307 303 301 300 303 306 305
220 227 229 233 226 230 238 250 256 258 263 270 256 241 252 239 261 276 273 282 274 286 306 309 317 288 293 301 301 300 303 301
212 219 228 236 225 222 233 250 266 271 263 257 256 245 248 243 252 264 277 282 290 303 313 314 318 297 282 291 291 301 300 299
226 232 232 235 239 247 253 261 266 272 264 257 254 250 255 255 255 257 271 276 287 294 305 324 337 328 292 289 291 293 293 303
238 224 233 241 254 253 260 278 283 279 272 262 255 249 258 259 249 254 262 269 284 290 280 295 310 316 310 300 295 286 293 299
238 234 231 239 244 262 266 266 263 269 267 265 251 244 250 260 245 257 265 268 273 280 268 283 299 308 307 297 289 287 294 297
242 239 241 247 252 253 254 255 268 262 256 253 253 241 245 248 249 257 269 264 257 269 272 283 291 296 300 289 282 282 288 292
243 236 247 248 254 255 257 261 266 261 252 242 238 243 238 241 254 256 263 268 277 281 273 282 288 289 289 278 272 275 281 288
247 252 251 254 254 255 256 260 265 268 265 247 236 230 236 241 252 257 257 263 270 275 273 277 280 279 277 268 271 265 266 282
248 246 248 250 250 252 256 259 262 262 255 248 241 237 239 238 247 252 253 260 268 270 271 277 279 272 276 291 292 264 267 289
243 249 253 254 256 252 253 256 258 261 261 257 236 238 239 240 240 246 253 258 265 266 267 271 269 247 269 288 300 281 286 297
248 250 251 252 252 256 255 252 255 257 259 257 247 235 238 240 244 247 248 254 259 261 264 265 263 255 291 299 295 281 286 297
Height
5891 5892 5895 5898 5900 5906 5909 5911 5909 5913 5910 5909 5906 5905 5902 5902 5900 5899 5898 5895 5895 5894 5894 5894 5893 5892 5892 5893 5895 5895 5894 5892
5885 5888 5891 5892 5896 5902 5905 5908 5909 5910 5906 5907 5905 5903 5901 5900 5898 5897 5895 5894 5893 5893 5892 5892 5891 5891 5891 5892 5891 5891 5891 5890
5879 5884 5886 5889 5892 5897 5900 5902 5905 5907 5910 5904 5902 5901 5899 5898 5897 5895 5894 5894 5893 5891 5890 5889 5889 5890 5890 5889 5888 5887 5887 5886
5876 5879 5881 5885 5889 5894 5898 5902 5900 5899 5902 5902 5900 5898 5898 5896 5895 5894 5893 5893 5892 5890 5888 5888 5888 5888 5887 5886 5885 5885 5883 5882
5871 5873 5877 5880 5883 5887 5893 5897 5895 5898 5902 5899 5897 5896 5897 5895 5894 5893 5892 5891 5890 5889 5887 5886 5885 5884 5883 5882 5881 5880 5879 5877
5867 5870 5873 5874 5878 5881 5886 5890 5893 5895 5895 5895 5896 5893 5894 5893 5893 5891 5890 5889 5888 5886 5885 5884 5882 5880 5878 5878 5877 5876 5874 5872
5860 5863 5865 5870 5873 5876 5878 5883 5886 5891 5891 5890 5891 5890 5891 5890 5889 5888 5887 5887 5886 5885 5883 5881 5879 5877 5875 5874 5873 5870 5868 5867
5855 5858 5860 5863 5867 5873 5874 5876 5877 5879 5881 5884 5886 5885 5886 5885 5884 5885 5884 5884 5883 5882 5880 5878 5876 5874 5872 5871 5869 5867 5864 5862
5852 5854 5855 5858 5861 5864 5868 5870 5871 5873 5878 5879 5880 5880 5881 5882 5882 5881 5881 5880 5878 5877 5876 5874 5872 5870 5868 5867 5865 5863 5860 5858
5852 5852 5853 5858 5860 5862 5864 5865 5865 5866 5868 5871 5871 5873 5875 5877 5877 5877 5876 5876 5874 5872 5871 5868 5866 5864 5864 5862 5861 5857 5855 5852
5845 5849 5854 5852 5854 5857 5858 5862 5860 5858 5860 5861 5864 5867 5870 5870 5870 5871 5871 5871 5869 5868 5866 5864 5862 5861 5860 5858 5856 5853 5850 5848
5841 5845 5848 5852 5849 5852 5853 5854 5854 5853 5853 5854 5857 5861 5864 5864 5864 5865 5865 5864 5864 5863 5862 5860 5859 5857 5855 5853 5849 5846 5845 5842
5836 5838 5843 5841 5843 5846 5847 5853 5848 5847 5847 5848 5851 5854 5856 5858 5860 5860 5859 5859 5859 5857 5856 5854 5853 5850 5849 5846 5843 5841 5839 5836
5827 5830 5834 5833 5836 5839 5840 5840 5841 5842 5842 5843 5844 5847 5850 5851 5852 5854 5853 5853 5851 5850 5849 5848 5845 5843 5841 5838 5836 5833 5831 5829
5819 5824 5820 5823 5825 5827 5829 5831 5833 5836 5837 5837 5839 5841 5843 5845 5845 5846 5846 5845 5844 5842 5840 5840 5837 5834 5832 5830 5828 5826 5825 5822
5807 5811 5810 5811 5814 5817 5820 5823 5825 5827 5830 5831 5832 5834 5835 5837 5838 5837 5837 5836 5835 5832 5832 5830 5827 5826 5824 5822 5821 5818 5815 5814
5796 5798 5799 5799 5804 5808 5810 5813 5815 5818 5821 5823 5825 5826 5828 5828 5829 5829 5828 5828 5826 5824 5824 5821 5819 5817 5816 5813 5809 5810 5807 5808
5786 5786 5790 5791 5794 5797 5800 5803 5805 5807 5811 5813 5815 5817 5818 5819 5820 5820 5820 5820 5817 5816 5816 5812 5805 5798 5807 5808 5805 5804 5802 5800
5775 5777 5779 5781 5784 5785 5788 5791 5794 5796 5799 5802 5804 5807 5809 5810 5812 5812 5812 5811 5808 5809 5805 5802 5802 5796 5793 5798 5798 5797 5795 5792